Location: Bald Rock
(37.3738°N, 119.9354°W)
Time: 21:29:42
(UTC+00:00)

Cosmos 2219 Rocket - Pass Details

Date: 08 September 2024
Orbit: 828 x 845 km, 71.0° (Epoch: 12 October)

Event Time Altitude Azimuth Distance (km) Brightness Sun altitude
Rises 12:48:16 0° 340° (NNW) 3,398 5.3 -10.2°
Reaches altitude 10° 12:50:45 10° 343° (NNW) 2,457 4.6 -9.8°
Maximum altitude 12:56:22 70° 67° (ENE) 888 2.6 -8.7°
Drops below altitude 10° 13:01:55 10° 151° (SSE) 2,431 4.8 -7.6°
Sets 13:04:21 0° 153° (SSE) 3,358 5.5 -7.1°
